Terminal Aerodrome Forecast
Issued by NWS Tulsa, OK

Home | Current Version | Previous Version | Text Only | Print | Product List | Glossary On
Versions: 1 2 3 4 5 6 7 8 9 10 11 12 13 14 15 16 17
000
FTPQ31 PGUM 172321
TAFGUM
TAF

TAF
PTSA 172321Z 1800/1824 05010KT P6SM VCSH SCT019 SCT130=

USA.gov is the U.S. government's official web portal to all federal, state and local government web resources and services.